Showing default

GLOBAL-31, 63027

Orbit data source: Space-Track

GLOBAL-31, 63027 is a payload satellite owned by BlackSky Global (US) in LEO that was launched on Tue, 18 Feb 2025 UTC via an ELECTRON launch vehicle from the Rocket Lab Launch Complex (RLLC). Payload-class satellites include a variety of spacecraft equipped with specific instruments for various scientific and technological missions. These include communications satellites like Starlink; space stations such as the ISS; scientific satellites like the Hubble; Earth observation satellites from companies like Planet Labs, Umbra, and HawkEye 360; GPS; miniature CubeSats for education and research; and military/defense satellites.

Loading next visibility...
Identifier
63027, 2025-033B
Orbit
LEO
Country
Flag of USUS
Related business
Manufacturer
LeoStella
Mission
Operational Commercial Imaging
Bus & Motor
BSKY, Unknown motor
Mass
138 kg wet, 134 kg dry
Launch date (UTC)
2025-02-18 (1 year ago)
Launch vehicle
ELECTRON
Launch site
Rocket Lab Launch Complex (RLLC)
Object type
Payload
Rocket body
Debris
Shape & HBR
Box + 2 Pan, 1.5 m
Radar Cross Section
2.545 m², Large (>1 m²)

Expand to show TLE details & history
Last TLE update: 1 day ago

TLE from 1 day ago
0 GLOBAL-31
1 63027U 25033B   26170.71142693  .00011728  00000-0  31560-3 0  9997
2 63027  58.9988 305.8894 0010374  57.5716 302.6362 15.38304705 74717
Epoch: 2026-06-19T17:04Z
TLE epoch observation values (Epoch: 2026-06-19T17:04:27.286Z)
Latitude
-0.00002°
Longitude
141.83922°
Altitude
448.816 km
Speed
7.646 km/s
True Right ascension
20h 23m 33s
True Declination
0° 00' 00"
Sunlit
Object was in full shadow at epoch
Visualization orbit readout
Latitude
Unknown
Longitude
Unknown
Altitude
Unknown
Speed
Unknown
Apparent Right ascension
Unknown
Apparent Declination
Unknown
Sunlit
N/A
Visualization observer readout
Local Sidereal Time
07:17:59
Azimuth
Unknown
Elevation
Unknown
Doppler factor
Unknown
Orbital elements
Apogee altitude
457.552 km
Perigee altitude
443.384 km
Semi-major axis
6,828.605 km
Eccentricity
0.00104
Inclination
58.9988°
RAAN
305.8894°
Arg. of periapsis
57.5716°
True anomaly
302.53602°
Mean anomaly
302.6362°
Eccentric anomaly
302.58612°
Mean motion
3.84632 °/min
Orbital period
93.6 mins
BSTAR
0.0003156
Loading maneuver chart data...
Computing Atmospheric mass density...
Loading historical data...
Loading historical data...
Loading historical data...
Loading historical data...
Loading historical data...
Loading historical data...
Loading historical data...
Other satellites on launch #33 in the year 2025 (2025-02-18 UTC)

Documentation

Showing up to 5 results
|